Starlink 1628

operational
NORAD ID: 46169 Int'l Des: 2020-057 Owner: SPXS Country: US Constellation: starlink
LEOCIRCULAR

About Starlink 1628

Description loading...

Live Position

Loading 3D Globe...

Upcoming Passes

Altitude History

Altitude vs Time

uPlot chart will show altitude changes over time

Two-Line Element Set

1 46169U 20057BE 25260.25009259 .00097694 00000-0 63909-3 0 9992
2 46169 53.0407 281.7539 0008747 40.2826 20.3900 15.75009793 5971
Epoch: Sep 17, 2025 • Age: 15 hours

Current Status

Altitude 365.1 km
Velocity 7.69 km/s
Sub-Earth Point -51.70°S, 99.32°W
Launch Date Aug 18, 2020
Age 5 years
Type internet

Technical Details

Classification Payload
Mass 260.00 kg
Dry Mass 248.00 kg
Total Mass 260.00 kg
Length 0.20 m
Diameter 2.80 m
Span 9.00 m
Shape Box + pan
Manufacturer SPXS
Bus Type Starlink
Phase Status In Orbit
Owner/State SPXS/US

Large Constellations

Loading constellations...